contact:dominique.lefevre@mio.osupytheas.fr, maurice.libes@osupytheas.fr, didier.mallarino@osupytheas.fr
Project:EMSO http://www.emso-fr.org/EMSO-France
Depth: 2436.0 m
Title:EMSO Ligure Ouest : Data MII capteur AQUADOPP
Date,Latitude,Longitude,X_East,Y_North,Z_Up,Amplitude_X,Amplitude_Y,Amplitude_Z,Batterie,SoundSpeed,Heading,Pitch,Roll,Pressure,TIS,Speed,Direction
, degrees North, degrees East, m.s-1, m.s-1,m.s-1, 1, 1, 1, Volt, m.s-1, degree, degree, degree, dbar, degree_C, m.s-1, degree
2021-07-10T00:04:03,42.805,6.029,-0.005,-0.02,-0.019,103.0,102.0,101.0,13.4,1505.2,329.2,-0.7,1.8,2470.519,13.28,0.02,194.0
2021-07-10T00:07:03,42.805,6.029,-0.014,-0.013,-0.023,100.0,102.0,100.0,13.3,1505.2,327.9,-0.7,1.8,2470.548,13.29,0.019,227.1
2021-07-10T00:10:03,42.805,6.029,-0.005,-0.02,-0.013,103.0,101.0,99.0,13.4,1505.2,328.2,-0.8,1.8,2470.503,13.29,0.02,194.0
2021-07-10T00:13:03,42.805,6.029,0.012,-0.012,-0.003,101.0,101.0,100.0,13.4,1505.2,324.8,-0.7,1.8,2470.502,13.29,0.016,135.0
2021-07-10T00:16:03,42.805,6.029,0.0,0.013,0.013,100.0,101.0,100.0,13.4,1505.2,330.1,-0.7,1.8,2470.499,13.29,0.013,0.0
2021-07-10T00:19:03,42.805,6.029,-0.006,-0.016,-0.02,103.0,100.0,99.0,13.4,1505.2,326.3,-0.8,1.8,2470.508,13.29,0.017,200.6
2021-07-10T00:22:03,42.805,6.029,-0.013,0.012,0.019,101.0,101.0,101.0,13.4,1505.2,327.1,-0.8,1.9,2470.483,13.29,0.017,312.7
2021-07-10T00:25:03,42.805,6.029,-0.01,-0.012,-0.034,102.0,98.0,100.0,13.4,1505.2,326.4,-0.7,1.8,2470.488,13.29,0.015,219.8
2021-07-10T00:28:03,42.805,6.029,-0.022,0.005,-0.003,100.0,100.0,100.0,13.4,1505.2,325.1,-0.8,1.8,2470.416,13.29,0.022,282.8
2021-07-10T00:31:03,42.805,6.029,-0.021,0.004,-0.005,102.0,101.0,101.0,13.3,1505.2,330.4,-0.8,1.8,2470.503,13.29,0.021,280.8
2021-07-10T00:34:03,42.805,6.029,-0.013,-0.01,-0.017,100.0,100.0,101.0,13.4,1505.2,328.3,-0.8,1.9,2470.491,13.29,0.016,232.4
2021-07-10T00:37:03,42.805,6.029,-0.015,-0.004,-0.014,99.0,101.0,100.0,13.4,1505.2,325.5,-0.8,1.8,2470.503,13.29,0.015,255.1
2021-07-10T00:40:03,42.805,6.029,0.001,-0.012,-0.049,98.0,102.0,100.0,13.3,1505.2,328.7,-0.7,1.8,2470.471,13.29,0.012,175.2
2021-07-10T00:43:03,42.805,6.029,-0.02,-0.015,-0.023,100.0,102.0,100.0,13.4,1505.2,326.3,-0.7,1.8,2470.485,13.29,0.025,233.1
2021-07-10T00:46:03,42.805,6.029,0.01,0.006,0.022,99.0,102.0,99.0,13.4,1505.2,328.0,-0.7,1.9,2470.489,13.29,0.011,59.0
2021-07-10T00:49:03,42.805,6.029,0.002,-0.008,-0.022,100.0,101.0,101.0,13.4,1505.2,329.6,-0.7,1.8,2470.476,13.29,0.008,166.0
2021-07-10T00:52:03,42.805,6.029,-0.014,-0.012,-0.004,101.0,101.0,100.0,13.4,1505.2,326.0,-0.8,1.8,2470.481,13.29,0.018,229.4
2021-07-10T00:55:03,42.805,6.029,-0.009,0.0,0.0,103.0,102.0,101.0,13.3,1505.2,326.1,-0.8,1.8,2470.485,13.29,0.009,270.0
2021-07-10T00:58:03,42.805,6.029,-0.017,-0.002,-0.035,100.0,102.0,101.0,13.4,1505.2,328.3,-0.8,1.8,2470.489,13.29,0.017,263.3
2021-07-10T01:04:03,42.805,6.029,-0.018,0.001,-0.002,100.0,102.0,102.0,13.3,1505.2,328.3,-0.8,1.8,2470.507,13.29,0.018,273.2
2021-07-10T01:07:03,42.805,6.029,-0.033,0.015,0.009,101.0,101.0,100.0,13.4,1505.2,325.1,-0.8,1.8,2470.48,13.29,0.036,294.4
2021-07-10T01:10:03,42.805,6.029,0.004,-0.027,-0.009,100.0,100.0,100.0,13.4,1505.2,328.9,-0.8,1.9,2470.486,13.29,0.027,171.6
2021-07-10T01:13:03,42.805,6.029,-0.008,0.009,0.002,100.0,102.0,101.0,13.3,1505.2,327.0,-0.7,1.8,2470.499,13.29,0.012,318.4
2021-07-10T01:16:03,42.805,6.029,-0.008,0.011,-0.003,100.0,102.0,101.0,13.4,1505.2,325.6,-0.8,1.8,2470.44,13.29,0.013,324.0
2021-07-10T01:19:03,42.805,6.029,-0.017,0.003,-0.018,100.0,102.0,101.0,13.4,1505.2,328.0,-0.7,1.8,2470.473,13.29,0.017,280.0
2021-07-10T01:22:03,42.805,6.029,-0.014,0.001,0.004,102.0,102.0,100.0,13.4,1505.2,325.8,-0.7,1.8,2470.463,13.29,0.014,274.1
2021-07-10T01:25:03,42.805,6.029,-0.005,0.004,0.014,101.0,101.0,101.0,13.4,1505.2,327.1,-0.8,1.8,2470.469,13.29,0.006,308.7
2021-07-10T01:28:03,42.805,6.029,0.009,-0.004,0.001,99.0,102.0,102.0,13.4,1505.2,329.3,-0.8,1.8,2470.449,13.29,0.009,114.0
2021-07-10T01:31:03,42.805,6.029,-0.002,-0.012,0.004,100.0,103.0,100.0,13.4,1505.2,326.4,-0.8,1.8,2470.463,13.29,0.012,189.5
2021-07-10T01:34:03,42.805,6.029,0.019,0.0,0.018,100.0,103.0,100.0,13.4,1505.2,327.3,-0.7,1.8,2470.5,13.29,0.019,90.0
2021-07-10T01:37:03,42.805,6.029,-0.008,-0.011,-0.02,100.0,100.0,100.0,13.4,1505.2,326.8,-0.8,1.8,2470.454,13.29,0.013,216.0
2021-07-10T01:40:03,42.805,6.029,-0.014,0.002,0.018,101.0,100.0,101.0,13.3,1505.2,326.4,-0.7,1.8,2470.477,13.29,0.014,278.1
2021-07-10T01:43:03,42.805,6.029,-0.028,0.004,-0.02,100.0,101.0,100.0,13.4,1505.2,328.9,-0.7,1.8,2470.461,13.29,0.028,278.1
2021-07-10T01:46:03,42.805,6.029,-0.014,0.011,0.001,100.0,102.0,100.0,13.3,1505.2,328.1,-0.8,1.8,2470.469,13.29,0.017,308.2
2021-07-10T01:49:03,42.805,6.029,-0.006,0.005,-0.009,103.0,101.0,100.0,13.4,1505.2,327.3,-0.7,1.8,2470.429,13.29,0.007,309.8
2021-07-10T01:52:03,42.805,6.029,0.008,0.0,0.01,101.0,102.0,100.0,13.4,1505.2,325.6,-0.8,1.9,2470.438,13.29,0.008,90.0
2021-07-10T01:55:03,42.805,6.029,0.005,0.005,0.022,102.0,102.0,99.0,13.4,1505.2,325.6,-0.8,1.8,2470.456,13.29,0.007,45.0
2021-07-10T01:58:03,42.805,6.029,0.01,-0.005,0.03,101.0,102.0,101.0,13.4,1505.2,328.5,-0.7,1.8,2470.459,13.29,0.011,116.6
2021-07-10T02:04:03,42.805,6.029,-0.002,0.014,0.018,101.0,102.0,100.0,13.4,1505.2,327.9,-0.7,1.8,2470.492,13.29,0.014,351.9
2021-07-10T02:07:03,42.805,6.029,-0.01,-0.006,-0.011,101.0,101.0,101.0,13.4,1505.2,326.0,-0.8,1.8,2470.495,13.29,0.011,239.0
2021-07-10T02:10:03,42.805,6.029,-0.008,0.004,-0.025,101.0,103.0,102.0,13.4,1505.2,326.8,-0.8,1.8,2470.458,13.29,0.008,296.6
2021-07-10T02:13:03,42.805,6.029,0.021,0.0,-0.002,101.0,102.0,100.0,13.3,1505.2,327.1,-0.8,1.8,2470.516,13.29,0.021,90.0
2021-07-10T02:16:03,42.805,6.029,-0.01,-0.015,-0.002,102.0,101.0,99.0,13.4,1505.2,328.3,-0.8,1.8,2470.462,13.29,0.018,213.7
2021-07-10T02:19:03,42.805,6.029,-0.003,0.002,-0.027,101.0,102.0,101.0,13.4,1505.2,329.7,-0.8,1.8,2470.482,13.29,0.003,303.7
2021-07-10T02:22:03,42.805,6.029,0.0,-0.017,-0.005,102.0,103.0,102.0,13.4,1505.2,326.6,-0.8,1.8,2470.472,13.29,0.017,180.0
2021-07-10T02:25:03,42.805,6.029,-0.017,-0.009,0.001,102.0,102.0,101.0,13.4,1505.2,326.3,-0.7,1.8,2470.467,13.29,0.019,242.1
2021-07-10T02:28:03,42.805,6.029,-0.001,0.004,0.024,102.0,103.0,100.0,13.4,1505.2,326.8,-0.7,1.8,2470.442,13.29,0.004,346.0
2021-07-10T02:31:03,42.805,6.029,0.022,-0.007,0.028,100.0,105.0,102.0,13.4,1505.2,324.7,-0.8,1.8,2470.522,13.29,0.023,107.6
2021-07-10T02:34:03,42.805,6.029,0.009,-0.002,0.011,100.0,101.0,101.0,13.4,1505.2,329.7,-0.8,1.8,2470.432,13.29,0.009,102.5
2021-07-10T02:37:03,42.805,6.029,0.004,-0.003,-0.021,102.0,102.0,100.0,13.4,1505.2,328.0,-0.8,1.8,2470.477,13.28,0.005,126.9
2021-07-10T02:40:03,42.805,6.029,0.015,0.007,0.008,102.0,102.0,101.0,13.3,1505.2,326.7,-0.7,1.8,2470.478,13.28,0.016,65.0
2021-07-10T02:43:03,42.805,6.029,0.01,0.011,0.014,102.0,101.0,101.0,13.3,1505.2,327.6,-0.7,1.8,2470.442,13.28,0.014,42.3
2021-07-10T02:46:03,42.805,6.029,0.021,-0.006,-0.011,100.0,102.0,101.0,13.4,1505.2,326.8,-0.8,1.8,2470.408,13.28,0.021,105.9
2021-07-10T02:49:03,42.805,6.029,0.024,-0.007,0.006,101.0,102.0,100.0,13.4,1505.2,326.7,-0.7,1.8,2470.397,13.28,0.025,106.3
2021-07-10T02:52:03,42.805,6.029,0.009,-0.003,0.011,102.0,102.0,100.0,13.4,1505.2,327.6,-0.8,1.8,2470.447,13.28,0.009,108.4
2021-07-10T02:55:03,42.805,6.029,0.005,-0.002,-0.005,101.0,102.0,100.0,13.3,1505.2,327.8,-0.8,1.8,2470.456,13.28,0.005,111.8
2021-07-10T02:58:03,42.805,6.029,0.014,0.0,-0.01,101.0,104.0,101.0,13.3,1505.2,327.6,-0.8,1.8,2470.447,13.28,0.014,90.0
2021-07-10T03:04:03,42.805,6.029,0.006,0.005,0.018,101.0,102.0,100.0,13.4,1505.2,327.3,-0.7,1.8,2470.517,13.28,0.007,50.2
2021-07-10T03:07:03,42.805,6.029,0.008,0.013,-0.007,101.0,102.0,101.0,13.3,1505.2,328.6,-0.7,1.8,2470.475,13.28,0.015,31.6
2021-07-10T03:10:03,42.805,6.029,0.007,-0.007,0.019,101.0,102.0,101.0,13.4,1505.2,328.6,-0.7,1.8,2470.511,13.28,0.009,135.0
2021-07-10T03:13:03,42.805,6.029,0.022,-0.008,0.009,101.0,102.0,101.0,13.3,1505.2,324.6,-0.8,1.8,2470.47,13.28,0.023,110.0
2021-07-10T03:16:03,42.805,6.029,0.003,0.0,-0.004,102.0,102.0,101.0,13.4,1505.2,329.8,-0.8,1.8,2470.461,13.28,0.003,90.0
2021-07-10T03:19:03,42.805,6.029,0.007,-0.003,0.0,100.0,102.0,101.0,13.4,1505.2,327.1,-0.8,1.8,2470.456,13.28,0.007,113.2
2021-07-10T03:22:03,42.805,6.029,-0.01,0.015,0.01,101.0,104.0,100.0,13.4,1505.2,329.9,-0.8,1.8,2470.444,13.28,0.018,326.3
2021-07-10T03:25:03,42.805,6.029,0.011,-0.02,-0.03,101.0,102.0,101.0,13.4,1505.2,326.4,-0.7,1.8,2470.443,13.28,0.022,151.2
2021-07-10T03:28:03,42.805,6.029,0.005,-0.002,-0.012,100.0,102.0,102.0,13.3,1505.2,329.9,-0.7,1.8,2470.442,13.28,0.005,111.8
2021-07-10T03:31:03,42.805,6.029,-0.007,0.008,-0.004,99.0,101.0,101.0,13.4,1505.2,328.3,-0.7,1.8,2470.469,13.28,0.01,318.8
2021-07-10T03:34:03,42.805,6.029,0.004,0.004,0.002,101.0,102.0,100.0,13.3,1505.2,330.1,-0.8,1.8,2470.449,13.28,0.005,45.0
2021-07-10T03:37:03,42.805,6.029,-0.006,0.019,0.013,101.0,101.0,101.0,13.4,1505.2,325.2,-0.7,1.8,2470.453,13.28,0.019,342.5
2021-07-10T03:40:03,42.805,6.029,0.001,0.002,0.002,102.0,102.0,100.0,13.4,1505.2,325.0,-0.7,1.8,2470.441,13.28,0.002,26.6
2021-07-10T03:43:03,42.805,6.029,-0.007,-0.016,-0.016,103.0,99.0,100.0,13.4,1505.2,324.8,-0.7,1.8,2470.426,13.28,0.017,203.6
2021-07-10T03:46:03,42.805,6.029,0.001,-0.023,-0.026,101.0,104.0,99.0,13.4,1505.2,326.9,-0.7,1.8,2470.462,13.28,0.023,177.5
2021-07-10T03:49:03,42.805,6.029,-0.008,-0.009,-0.036,102.0,102.0,100.0,13.4,1505.2,327.4,-0.8,1.8,2470.484,13.28,0.012,221.6
2021-07-10T03:52:03,42.805,6.029,-0.01,-0.014,-0.015,101.0,104.0,101.0,13.4,1505.2,326.1,-0.8,1.8,2470.479,13.28,0.017,215.5
2021-07-10T03:55:03,42.805,6.029,-0.01,0.002,-0.009,102.0,100.0,100.0,13.4,1505.2,326.3,-0.8,1.8,2470.439,13.28,0.01,281.3
2021-07-10T03:58:03,42.805,6.029,-0.025,-0.014,-0.016,102.0,105.0,101.0,13.4,1505.2,328.8,-0.7,1.8,2470.437,13.28,0.028,240.7
2021-07-10T04:04:03,42.805,6.029,0.007,-0.008,-0.014,101.0,102.0,100.0,13.4,1505.2,328.8,-0.8,1.8,2470.491,13.28,0.01,138.8
2021-07-10T04:07:03,42.805,6.029,0.017,0.009,0.021,102.0,101.0,101.0,13.4,1505.2,328.7,-0.8,1.8,2470.506,13.28,0.019,62.1
2021-07-10T04:10:03,42.805,6.029,0.005,-0.013,-0.028,101.0,101.0,100.0,13.4,1505.2,330.5,-0.7,1.8,2470.483,13.28,0.013,159.0
2021-07-10T04:13:03,42.805,6.029,-0.03,0.005,-0.021,101.0,104.0,99.0,13.3,1505.2,327.8,-0.8,1.8,2470.526,13.28,0.03,279.5
2021-07-10T04:16:03,42.805,6.029,-0.017,-0.004,0.001,102.0,101.0,101.0,13.3,1505.2,325.2,-0.7,1.8,2470.459,13.28,0.017,256.8
2021-07-10T04:19:03,42.805,6.029,0.007,-0.003,-0.018,99.0,102.0,101.0,13.4,1505.2,329.1,-0.8,1.8,2470.487,13.28,0.007,113.2
2021-07-10T04:22:03,42.805,6.029,0.015,-0.003,0.013,102.0,102.0,100.0,13.4,1505.2,328.2,-0.7,1.8,2470.521,13.28,0.015,101.3
2021-07-10T04:25:03,42.805,6.029,-0.011,-0.006,-0.049,102.0,103.0,98.0,13.4,1505.2,329.6,-0.7,1.8,2470.506,13.28,0.012,241.4
2021-07-10T04:28:03,42.805,6.029,0.011,-0.018,-0.004,101.0,101.0,100.0,13.4,1505.2,325.8,-0.7,1.8,2470.489,13.28,0.021,148.6
2021-07-10T04:31:03,42.805,6.029,0.032,0.006,-0.009,101.0,102.0,106.0,13.4,1505.2,328.3,-0.8,1.8,2470.488,13.28,0.032,79.4
2021-07-10T04:34:03,42.805,6.029,0.002,0.01,0.02,102.0,101.0,100.0,13.4,1505.2,328.5,-0.7,1.8,2470.433,13.28,0.01,11.3
2021-07-10T04:37:03,42.805,6.029,0.006,-0.005,0.012,101.0,102.0,100.0,13.4,1505.2,325.5,-0.7,1.8,2470.485,13.28,0.007,129.8
2021-07-10T04:40:03,42.805,6.029,-0.007,-0.006,-0.028,102.0,101.0,100.0,13.4,1505.2,328.5,-0.7,1.8,2470.47,13.28,0.009,229.4
2021-07-10T04:43:03,42.805,6.029,0.016,0.007,0.024,101.0,101.0,101.0,13.4,1505.2,327.2,-0.8,1.8,2470.5,13.28,0.017,66.4
2021-07-10T04:46:03,42.805,6.029,0.016,-0.002,0.018,101.0,101.0,101.0,13.3,1505.2,328.5,-0.7,1.8,2470.5,13.28,0.016,97.1
2021-07-10T04:49:03,42.805,6.029,0.004,-0.013,-0.002,102.0,101.0,101.0,13.4,1505.2,327.5,-0.7,1.8,2470.458,13.28,0.013,162.9
2021-07-10T04:52:03,42.805,6.029,-0.017,-0.005,0.029,103.0,104.0,101.0,13.4,1505.2,327.6,-0.7,1.8,2470.487,13.28,0.017,253.6
2021-07-10T04:55:03,42.805,6.029,0.009,-0.015,-0.007,100.0,102.0,101.0,13.4,1505.2,325.0,-0.8,1.8,2470.485,13.28,0.017,149.0
2021-07-10T04:58:03,42.805,6.029,0.006,0.018,0.005,101.0,103.0,100.0,13.4,1505.2,328.4,-0.7,1.8,2470.486,13.28,0.018,18.4
2021-07-10T05:04:03,42.805,6.029,-0.005,-0.004,-0.007,101.0,102.0,101.0,13.4,1505.2,329.4,-0.8,1.8,2470.483,13.28,0.006,231.3
2021-07-10T05:07:03,42.805,6.029,0.005,-0.003,0.008,101.0,102.0,100.0,13.4,1505.2,327.4,-0.7,1.8,2470.507,13.28,0.005,121.0
2021-07-10T05:10:03,42.805,6.029,0.006,-0.004,0.011,101.0,102.0,102.0,13.4,1505.2,325.5,-0.8,1.8,2470.536,13.28,0.007,123.7
2021-07-10T05:13:03,42.805,6.029,0.001,-0.019,-0.001,101.0,102.0,100.0,13.4,1505.2,326.5,-0.8,1.8,2470.534,13.28,0.019,177.0
2021-07-10T05:16:03,42.805,6.029,0.002,0.0,0.024,100.0,103.0,100.0,13.4,1505.2,326.9,-0.8,1.8,2470.525,13.28,0.002,90.0
2021-07-10T05:19:03,42.805,6.029,-0.003,0.016,0.014,101.0,101.0,101.0,13.4,1505.2,329.1,-0.8,1.8,2470.551,13.28,0.016,349.4
2021-07-10T05:22:03,42.805,6.029,0.0,-0.001,-0.024,101.0,102.0,101.0,13.4,1505.2,327.5,-0.7,1.8,2470.496,13.28,0.001,180.0
2021-07-10T05:25:03,42.805,6.029,0.021,-0.005,-0.009,101.0,102.0,100.0,13.3,1505.2,325.7,-0.8,1.8,2470.506,13.28,0.021,103.4
2021-07-10T05:28:03,42.805,6.029,0.023,-0.02,-0.043,102.0,104.0,101.0,13.4,1505.2,328.2,-0.8,1.8,2470.487,13.28,0.03,131.0
2021-07-10T05:31:03,42.805,6.029,-0.01,0.015,0.011,101.0,101.0,100.0,13.4,1505.2,329.0,-0.8,1.8,2470.533,13.28,0.018,326.3
2021-07-10T05:34:03,42.805,6.029,0.012,-0.015,-0.014,101.0,101.0,101.0,13.4,1505.2,328.5,-0.7,1.8,2470.544,13.28,0.019,141.3
2021-07-10T05:37:03,42.805,6.029,0.004,-0.003,-0.008,101.0,102.0,100.0,13.4,1505.2,326.4,-0.8,1.8,2470.538,13.28,0.005,126.9
2021-07-10T05:40:03,42.805,6.029,0.017,-0.009,-0.002,101.0,102.0,101.0,13.4,1505.2,327.2,-0.7,1.8,2470.555,13.28,0.019,117.9
2021-07-10T05:43:03,42.805,6.029,0.019,-0.01,-0.001,101.0,101.0,101.0,13.3,1505.2,329.0,-0.8,1.8,2470.533,13.28,0.021,117.8
2021-07-10T05:46:03,42.805,6.029,-0.004,-0.008,-0.037,99.0,101.0,102.0,13.4,1505.2,327.0,-0.7,1.8,2470.479,13.28,0.008,206.6
2021-07-10T05:49:03,42.805,6.029,-0.001,-0.021,-0.029,101.0,101.0,101.0,13.4,1505.2,327.5,-0.7,1.8,2470.5,13.28,0.021,182.7
2021-07-10T05:52:03,42.805,6.029,-0.004,-0.011,-0.032,101.0,100.0,100.0,13.4,1505.2,328.4,-0.7,1.8,2470.503,13.28,0.011,200.0
2021-07-10T05:55:03,42.805,6.029,0.008,-0.011,0.016,101.0,101.0,100.0,13.4,1505.2,327.8,-0.8,1.8,2470.509,13.28,0.013,144.0
2021-07-10T05:58:03,42.805,6.029,0.027,-0.016,0.043,100.0,102.0,101.0,13.3,1505.2,328.9,-0.8,1.8,2470.547,13.28,0.031,120.7
2021-07-10T06:04:03,42.805,6.029,0.005,0.0,0.001,101.0,101.0,100.0,13.4,1505.2,325.5,-0.8,1.8,2470.558,13.28,0.005,90.0
2021-07-10T06:07:03,42.805,6.029,-0.001,0.0,-0.01,101.0,102.0,100.0,13.4,1505.2,330.2,-0.7,1.9,2470.55,13.28,0.001,270.0
2021-07-10T06:10:03,42.805,6.029,-0.011,-0.016,0.006,101.0,101.0,101.0,13.4,1505.2,326.6,-0.8,1.8,2470.567,13.28,0.019,214.5
2021-07-10T06:13:03,42.805,6.029,0.011,-0.01,0.027,101.0,102.0,100.0,13.4,1505.2,325.1,-0.7,1.8,2470.554,13.28,0.014,132.3
2021-07-10T06:16:03,42.805,6.029,0.017,-0.014,-0.028,101.0,103.0,99.0,13.4,1505.2,329.8,-0.7,1.8,2470.572,13.28,0.022,129.5
2021-07-10T06:19:03,42.805,6.029,0.007,0.002,0.015,102.0,102.0,100.0,13.4,1505.2,329.9,-0.8,1.8,2470.532,13.28,0.007,74.1
2021-07-10T06:22:03,42.805,6.029,-0.022,-0.011,-0.026,101.0,101.0,100.0,13.4,1505.2,327.4,-0.8,1.8,2470.572,13.28,0.024,243.4
2021-07-10T06:25:03,42.805,6.029,-0.011,0.012,-0.028,100.0,102.0,100.0,13.4,1505.2,326.0,-0.7,1.9,2470.526,13.28,0.016,317.5
2021-07-10T06:28:03,42.805,6.029,0.01,0.003,0.001,102.0,103.0,100.0,13.3,1505.2,328.1,-0.7,1.8,2470.559,13.28,0.01,73.3
2021-07-10T06:31:03,42.805,6.029,-0.007,-0.007,-0.04,101.0,100.0,101.0,13.4,1505.2,329.5,-0.7,1.8,2470.533,13.28,0.009,225.0
2021-07-10T06:34:03,42.805,6.029,-0.013,-0.014,-0.009,103.0,102.0,101.0,13.4,1505.2,329.8,-0.7,1.8,2470.547,13.28,0.019,222.9
2021-07-10T06:37:03,42.805,6.029,0.031,-0.013,0.01,102.0,100.0,101.0,13.4,1505.2,327.9,-0.7,1.8,2470.548,13.28,0.033,112.7
2021-07-10T06:40:03,42.805,6.029,0.005,0.003,-0.014,100.0,101.0,101.0,13.4,1505.2,329.9,-0.7,1.8,2470.559,13.28,0.005,59.0
2021-07-10T06:43:03,42.805,6.029,-0.015,-0.003,-0.005,101.0,100.0,101.0,13.3,1505.2,324.8,-0.8,1.9,2470.533,13.28,0.015,258.7
2021-07-10T06:46:03,42.805,6.029,-0.001,0.005,0.003,102.0,101.0,100.0,13.4,1505.2,328.5,-0.7,1.8,2470.543,13.28,0.005,348.7
2021-07-10T06:49:03,42.805,6.029,-0.01,-0.017,-0.001,101.0,100.0,101.0,13.3,1505.2,329.9,-0.7,1.8,2470.554,13.28,0.019,210.5
2021-07-10T06:52:03,42.805,6.029,-0.007,0.003,-0.019,102.0,100.0,101.0,13.4,1505.2,327.6,-0.7,1.8,2470.525,13.28,0.007,293.2
2021-07-10T06:55:03,42.805,6.029,0.02,-0.003,-0.003,99.0,104.0,100.0,13.3,1505.2,329.1,-0.8,1.8,2470.562,13.28,0.02,98.5
2021-07-10T06:58:03,42.805,6.029,0.013,-0.006,0.008,101.0,102.0,100.0,13.4,1505.2,328.6,-0.7,1.8,2470.565,13.28,0.014,114.8
2021-07-10T07:04:03,42.805,6.029,-0.005,-0.019,-0.033,101.0,102.0,101.0,13.3,1505.2,326.7,-0.8,1.8,2470.569,13.28,0.019,194.7
2021-07-10T07:07:03,42.805,6.029,0.002,-0.013,0.003,101.0,101.0,100.0,13.4,1505.2,330.5,-0.7,1.8,2470.552,13.28,0.013,171.3
2021-07-10T07:10:03,42.805,6.029,0.013,0.01,0.029,100.0,101.0,101.0,13.4,1505.2,329.0,-0.7,1.9,2470.573,13.28,0.016,52.4
2021-07-10T07:13:03,42.805,6.029,-0.005,0.004,-0.007,100.0,102.0,101.0,13.3,1505.2,326.9,-0.7,1.8,2470.57,13.28,0.006,308.7
2021-07-10T07:16:03,42.805,6.029,0.014,-0.028,-0.019,101.0,100.0,101.0,13.4,1505.2,326.1,-0.7,1.8,2470.535,13.28,0.031,153.4
2021-07-10T07:19:03,42.805,6.029,-0.008,0.002,-0.013,101.0,101.0,100.0,13.3,1505.2,328.6,-0.7,1.8,2470.535,13.28,0.008,284.0
2021-07-10T07:22:03,42.805,6.029,0.01,-0.003,-0.007,101.0,101.0,101.0,13.4,1505.2,327.0,-0.7,1.8,2470.554,13.28,0.01,106.7
2021-07-10T07:25:03,42.805,6.029,0.008,-0.006,-0.023,101.0,102.0,101.0,13.3,1505.2,330.2,-0.8,1.8,2470.558,13.28,0.01,126.9
2021-07-10T07:28:03,42.805,6.029,0.015,-0.013,-0.006,100.0,102.0,100.0,13.4,1505.2,328.8,-0.7,1.8,2470.544,13.28,0.019,130.9
2021-07-10T07:31:03,42.805,6.029,-0.028,-0.006,-0.024,101.0,102.0,100.0,13.4,1505.2,327.2,-0.7,1.8,2470.54,13.28,0.028,257.9
2021-07-10T07:34:03,42.805,6.029,0.005,-0.026,-0.028,102.0,103.0,100.0,13.3,1505.2,326.3,-0.7,1.8,2470.557,13.28,0.026,169.1
2021-07-10T07:37:03,42.805,6.029,-0.001,0.0,-0.021,100.0,103.0,100.0,13.4,1505.2,328.6,-0.7,1.8,2470.534,13.28,0.001,270.0
2021-07-10T07:40:03,42.805,6.029,0.026,0.002,0.024,101.0,101.0,100.0,13.4,1505.2,328.3,-0.7,1.9,2470.503,13.28,0.026,85.6
2021-07-10T07:43:03,42.805,6.029,0.013,-0.013,-0.001,101.0,100.0,101.0,13.4,1505.2,328.6,-0.8,1.8,2470.527,13.28,0.018,135.0
2021-07-10T07:46:03,42.805,6.029,0.001,-0.008,-0.02,101.0,101.0,100.0,13.4,1505.2,326.8,-0.7,1.8,2470.533,13.28,0.008,172.9
2021-07-10T07:49:03,42.805,6.029,0.002,-0.004,0.009,100.0,102.0,100.0,13.3,1505.2,325.7,-0.7,1.8,2470.555,13.28,0.004,153.4
2021-07-10T07:52:03,42.805,6.029,0.006,-0.003,-0.004,101.0,100.0,100.0,13.3,1505.2,327.6,-0.7,1.8,2470.52,13.28,0.006,116.6
2021-07-10T07:55:03,42.805,6.029,-0.002,-0.005,-0.022,103.0,101.0,99.0,13.4,1505.2,328.0,-0.8,1.8,2470.564,13.28,0.005,201.8
2021-07-10T07:58:03,42.805,6.029,0.034,-0.027,-0.012,100.0,101.0,100.0,13.4,1505.2,325.2,-0.8,1.8,2470.528,13.28,0.043,128.5
2021-07-10T08:04:03,42.805,6.029,-0.005,-0.003,-0.058,101.0,101.0,100.0,13.3,1505.2,326.3,-0.7,1.8,2470.519,13.28,0.005,239.0
2021-07-10T08:07:03,42.805,6.029,-0.014,-0.014,0.001,101.0,101.0,100.0,13.4,1505.2,327.1,-0.7,1.8,2470.519,13.28,0.019,225.0
2021-07-10T08:10:03,42.805,6.029,0.005,-0.008,0.006,100.0,102.0,100.0,13.4,1505.2,330.1,-0.7,1.8,2470.561,13.28,0.009,148.0
2021-07-10T08:13:03,42.805,6.029,0.012,-0.018,-0.032,100.0,103.0,100.0,13.4,1505.2,328.6,-0.8,1.9,2470.513,13.28,0.021,146.3
2021-07-10T08:16:03,42.805,6.029,0.032,-0.013,-0.017,100.0,101.0,100.0,13.4,1505.2,326.6,-0.7,1.8,2470.542,13.28,0.034,112.1
2021-07-10T08:19:03,42.805,6.029,0.007,-0.003,-0.012,101.0,100.0,102.0,13.3,1505.2,328.8,-0.8,1.8,2470.515,13.28,0.007,113.2
2021-07-10T08:22:03,42.805,6.029,-0.011,-0.009,-0.032,100.0,101.0,101.0,13.4,1505.2,328.3,-0.8,1.8,2470.503,13.28,0.014,230.7
2021-07-10T08:25:03,42.805,6.029,0.002,-0.017,-0.018,102.0,101.0,99.0,13.4,1505.2,327.7,-0.8,1.8,2470.53,13.28,0.017,173.3
2021-07-10T08:28:03,42.805,6.029,0.003,-0.004,0.015,102.0,101.0,100.0,13.4,1505.2,328.8,-0.8,1.9,2470.54,13.28,0.005,143.1
2021-07-10T08:31:03,42.805,6.029,-0.011,-0.015,-0.003,101.0,102.0,99.0,13.4,1505.2,328.8,-0.7,1.8,2470.492,13.28,0.018,216.3
2021-07-10T08:34:03,42.805,6.029,-0.008,-0.01,-0.039,102.0,100.0,101.0,13.4,1505.2,328.4,-0.8,1.8,2470.486,13.28,0.012,218.7
2021-07-10T08:37:03,42.805,6.029,-0.029,-0.011,-0.03,101.0,101.0,100.0,13.4,1505.2,327.6,-0.8,1.8,2470.51,13.28,0.031,249.2
2021-07-10T08:40:03,42.805,6.029,0.006,-0.021,-0.004,99.0,101.0,100.0,13.4,1505.2,327.4,-0.7,1.8,2470.483,13.28,0.021,164.1
2021-07-10T08:43:03,42.805,6.029,-0.01,-0.009,-0.01,102.0,101.0,100.0,13.4,1505.2,325.4,-0.7,1.8,2470.503,13.28,0.013,228.0
2021-07-10T08:46:03,42.805,6.029,-0.002,0.003,-0.017,101.0,102.0,101.0,13.4,1505.2,330.4,-0.7,1.8,2470.499,13.29,0.003,326.3
2021-07-10T08:49:03,42.805,6.029,-0.006,0.0,0.0,99.0,102.0,101.0,13.4,1505.2,328.2,-0.7,1.8,2470.505,13.28,0.006,270.0
2021-07-10T08:52:03,42.805,6.029,-0.02,0.003,-0.009,102.0,100.0,99.0,13.3,1505.2,328.1,-0.8,1.8,2470.496,13.29,0.02,278.5
2021-07-10T08:55:03,42.805,6.029,-0.017,-0.037,-0.04,101.0,103.0,100.0,13.4,1505.2,327.7,-0.8,1.8,2470.508,13.29,0.04,204.7
2021-07-10T08:58:03,42.805,6.029,-0.007,0.0,0.01,99.0,101.0,101.0,13.4,1505.2,329.0,-0.7,1.8,2470.482,13.29,0.007,270.0
2021-07-10T09:04:03,42.805,6.029,-0.002,-0.018,0.0,101.0,103.0,100.0,13.3,1505.2,328.5,-0.7,1.8,2470.515,13.28,0.018,186.3
2021-07-10T09:07:03,42.805,6.029,-0.016,-0.003,-0.023,102.0,100.0,102.0,13.3,1505.2,329.4,-0.7,1.8,2470.51,13.28,0.016,259.4
2021-07-10T09:10:03,42.805,6.029,0.002,-0.002,-0.002,100.0,102.0,101.0,13.3,1505.2,327.0,-0.7,1.8,2470.504,13.28,0.002,135.0
2021-07-10T09:13:03,42.805,6.029,0.009,-0.021,-0.013,101.0,102.0,100.0,13.3,1505.2,327.0,-0.7,1.8,2470.484,13.28,0.022,156.8
2021-07-10T09:16:03,42.805,6.029,0.0,-0.01,-0.02,101.0,103.0,100.0,13.4,1505.2,326.6,-0.8,1.8,2470.495,13.29,0.01,180.0
2021-07-10T09:19:03,42.805,6.029,0.012,-0.006,-0.001,100.0,102.0,100.0,13.4,1505.2,328.7,-0.8,1.8,2470.475,13.29,0.013,116.6
2021-07-10T09:22:03,42.805,6.029,-0.025,0.002,0.004,100.0,101.0,101.0,13.3,1505.2,329.2,-0.8,1.8,2470.487,13.29,0.025,274.6
2021-07-10T09:25:03,42.805,6.029,0.014,0.0,0.007,102.0,101.0,101.0,13.4,1505.2,328.3,-0.8,1.8,2470.501,13.29,0.014,90.0
2021-07-10T09:28:03,42.805,6.029,-0.01,-0.024,-0.016,101.0,101.0,100.0,13.4,1505.2,328.4,-0.7,1.8,2470.477,13.29,0.026,202.6
2021-07-10T09:31:03,42.805,6.029,0.007,0.005,0.008,99.0,101.0,100.0,13.4,1505.2,327.7,-0.7,1.8,2470.468,13.29,0.008,54.5
2021-07-10T09:34:03,42.805,6.029,0.0,-0.009,-0.041,104.0,102.0,101.0,13.4,1505.2,327.0,-0.8,1.8,2470.422,13.29,0.009,180.0
2021-07-10T09:37:03,42.805,6.029,0.007,-0.019,-0.046,101.0,102.0,99.0,13.3,1505.2,325.7,-0.7,1.8,2470.474,13.29,0.02,159.8
2021-07-10T09:40:03,42.805,6.029,0.0,-0.003,-0.04,103.0,102.0,101.0,13.3,1505.2,324.7,-0.7,1.8,2470.467,13.29,0.003,180.0
2021-07-10T09:43:03,42.805,6.029,0.031,-0.02,0.016,100.0,102.0,101.0,13.4,1505.2,327.4,-0.8,1.8,2470.484,13.29,0.036,122.8
2021-07-10T09:46:03,42.805,6.029,-0.001,-0.015,-0.008,102.0,101.0,100.0,13.3,1505.2,326.2,-0.8,1.8,2470.439,13.29,0.015,183.8
2021-07-10T09:49:03,42.805,6.029,-0.02,0.0,-0.025,100.0,101.0,101.0,13.4,1505.2,327.3,-0.8,1.8,2470.485,13.29,0.02,270.0
2021-07-10T09:52:03,42.805,6.029,-0.016,-0.017,-0.03,101.0,101.0,100.0,13.4,1505.2,328.7,-0.8,1.8,2470.434,13.29,0.023,223.3
2021-07-10T09:55:03,42.805,6.029,-0.003,-0.023,0.002,101.0,101.0,100.0,13.4,1505.2,325.8,-0.8,1.8,2470.443,13.29,0.023,187.4